SCP
0 0 0 0 0 0 0 0 0 0 0 0 0 0 0 0 0 0 0 0 0 0 0 -0 -0 -0 0 0 0 0 0 0 0 0 0 0 0 0 0 0 0 0 0
0 0 0 0 0 0 0 0 0 0 0 0 0 0 0 0 0 0 0 0 0 0 0 0 0 0 0 0 -0 -0 0 0 0 0 0 0 0 0 0 0 0 0 0
0 0 0 0 0 0 0 0 0 0 0 0 0 0 0 0 0 0 0 0 0 0 0 0 0 0 0 0 0 0 0 0 0 -0 -0 0 0 0 0 0 0 0 0
0 0 0 0 0 0 0 0 0 0 0 0 0 0 0 0 0 0 0 0 0 0 0 0 0 0 0 0 0 0 0 0 0 0 0 0 0 0 0 0 0 0 0
0 0 0 0 0 0 0 0 0 0 0 0 0 0 0 0 0 0 0 0 0 0 0 0 0 0 0 0 0 0 0 0 0 0 0 0 0 0 0 0 0 0 0
0 0 0 0 0 0 0 0 0 0 0 0 0 0 0 0 0 0 0 0 0 0 0 0 0 0 0 0 0 0 0 0 0 0 0 0 0 0 0 0 0 0 0
0 0 0 0 0 0 0 0 0 0 0 0 0 0 0 0 0 0 0 0 0 0 0 0 0 0 0 0 0 0 0 0 0 0 0 0 0 0 0 0 0 0 0
0 0 0 0 0 0 0 0 0 0 0 0 0 0 0 0 0 0 0 0 0 0 0 0 0 0 0 0 0 0 0 0 0 0 0 0 0 0 0 0 0 0 0
0 0 0 0 0 0 0 0 0 0 0 0 0 0 0 0 0 0 0 0 0 0 0 0 0 0 0 0 0 0 0 0 0 0 0 0 0 0 0 0 0 0 0
0 0 0 0 0 0 0 0 0 0 0 0 0 0 0 0 0 0 0 0 0 0 0 0 0 0 0 0 0 0 0 0 0 0 0 0 0 0 0 0 0 0 0
0 0 0 0 0 0 0 0 0 0 0 0 0 0 0 0 0 0 0 0 0 0 0 0 0 0 0 0 0 0 0 0 0 0 0 0 0 0 0 0 0 0 0
0 0 0 0 0 0 0 0 0 0 0 0 0 0 0 0 0 0 0 0 0 0 0 0 0 0 0 0 0 0 0 0 0 0 0 0 0 0 0 0 0 0 0
0 0 0 0 0 0 0 0 0 0 0 0 0 0 0 0 0 0 0 0 0 0 0 0 0 0 0 0 0 0 0 0 0 0 0 0 0 0 0 0 0 0 0
0 0 0 0 0 0 0 0 0 0 0 0 0 0 0 0 0 0 0 0 0 0 0 0 0 0 0 0 0 0 0 0 0 0 0 0 0 0 0 0 0 0 0
0 0 0 0 0 0 0 0 0 0 0 0 0 0 0 0 0 0 0 0 0 0 0 0 0 0 0 0 0 0 0 0 0 0 0 0 0 0 0 0 0 0 0
0 0 0 0 0 0 0 0 0 0 0 0 0 0 0 0 0 0 0 0 0 0 0 0 0 0 0 0 0 0 0 0 0 0 0 0 0 0 0 0 0 0 0
0 0 0 0 0 0 0 0 0 0 0 0 0 0 0 0 0 0 0 0 0 0 0 0 0 0 0 0 0 0 0 0 0 0 0 0 0 0 0 0 0 0 0
0 0 0 0 0 0 0 0 0 0 0 0 0 0 0 0 0 0 0 0 0 0 0 0 0 0 0 0 0 0 0 0 0 0 0 0 0 0 0 0 0 0 0
0 0 0 0 0 0 0 0 0 0 0 0 0 0 0 0 0 0 0 0 0 0 0 0 0 0 0 0 0 0 0 0 0 0 0 0 0 0 0 0 0 0 0
0 0 0 0 0 0 0 0 0 0 0 0 0 0 0 0 0 0 0 0 0 0 0 0 0 0 0 0 0 0 0 0 0 0 0 0 0 0 0 0 0 0 0
0 0 0 0 0 0 0 0 0 0 0 0 0 0 0 0 0 0 0 0 0 0 0 0 0 0 0 0 0 0 0 0 0 0 0 0 0 0 0 0 0 0 0
0 0 0 0 0 0 0 0 0 0 0 0 0 0 0 0 0 0 0 0 0 0 0 0 0 0 0 0 0 0 0 0 0 0 0 0 0 0 0 0 0 0 0
0 0 0 0 0 0 0 0 0 0 0 0 0 0 0 0 0 0 0 0 0 0 0 0 0 0 0 0 0 0 0 0 0 0 0 0 0 0 0 0 0 0 0
0 0 0 0 0 0 0 0 0 0 0 0 0 0 0 0 0 0 0 0 0 0 0 0 0 0 0 0 0 0 0 0 0 0 0 0 0 0 0 0 0 0 0
0 0 0 0 0 0 0 0 0 0 0 0 0 0 0 0 0 0 0 0 0 0 0 0 0 0 0 0 0 0 0 0 0 0 0 0 0 0 0 0 0 0 0
0 0 0 0 0 0 0 0 0 0 0 0 0 0 0 0 0 0 0 0 0 0 0 0 0 0 0 0 0 0 0 0 0 0 0 0 0 0 0 0 0 0 0
Wind_Speed_500mb
19 17 15 14 13 12 12 11 11 12 15 17 19 23 24 26 27 27 29 28 29 30 26 28 27 32 33 27 26 21 16 16 13 15 17 16 15 13 12 9 5 5 9
21 19 18 15 12 10 9 9 10 12 14 16 18 19 21 24 28 28 28 26 28 30 33 32 38 40 34 28 28 24 22 20 16 15 14 18 20 20 18 16 13 9 9
23 22 20 17 15 14 12 12 11 12 12 14 16 16 19 23 24 29 30 32 37 34 29 32 36 41 39 36 32 29 24 23 23 16 11 11 16 22 24 24 21 18 17
26 23 20 18 17 16 14 13 13 13 13 13 14 15 17 19 21 25 26 29 33 37 41 35 34 35 41 37 37 36 33 33 31 31 23 17 17 17 21 27 28 26 24
26 22 19 17 16 15 15 14 13 11 12 11 13 13 14 14 18 20 22 25 28 33 36 44 47 45 41 40 37 40 34 29 26 31 30 27 22 24 22 21 26 29 32
24 21 20 19 19 18 16 16 15 14 11 11 11 12 13 13 14 15 15 17 20 23 26 28 30 34 38 41 47 52 50 43 35 33 28 31 31 27 27 30 32 30 29
22 19 17 15 11 10 10 10 10 13 14 17 11 6 4 7 10 10 13 14 14 16 18 20 19 22 25 25 29 33 36 40 43 46 47 45 33 33 36 34 37 38 40
25 22 18 15 13 11 10 9 9 8 10 15 13 6 1 3 7 11 12 13 12 12 13 14 14 15 19 19 23 23 23 29 33 49 51 52 50 46 38 38 42 42 46
24 19 16 14 13 12 11 11 10 8 10 10 15 10 9 5 4 1 8 16 14 14 12 12 12 12 15 17 18 19 22 24 24 26 37 52 55 53 48 45 43 49 46
25 21 18 15 13 11 10 10 11 11 10 12 12 11 9 10 9 4 3 5 5 10 12 13 14 14 16 18 20 18 19 21 24 25 25 25 28 42 55 52 46 50 66
27 23 18 15 13 10 9 9 9 12 11 9 9 10 8 8 10 9 4 3 6 8 10 13 13 15 15 20 21 20 23 23 24 24 23 21 17 10 8 12 32 54 66
27 23 19 15 12 10 9 8 8 8 7 6 5 7 7 10 8 9 11 10 10 14 20 18 13 15 16 20 21 23 26 27 26 27 28 28 21 15 23 34 36 34 37
27 23 19 16 13 11 10 9 9 8 7 6 6 5 5 8 8 7 8 9 8 15 13 11 12 15 16 19 19 18 22 24 26 28 30 30 35 40 39 37 36 34 36
24 20 15 13 10 7 6 7 5 3 3 5 6 7 8 10 10 10 10 12 10 6 11 7 9 18 15 19 21 19 19 21 22 25 28 32 35 37 38 37 35 36 37
17 17 11 13 16 15 11 9 8 8 9 8 9 10 10 11 12 13 14 14 14 6 5 9 10 7 15 17 20 26 23 23 24 25 27 30 31 31 32 35 38 38 36
18 16 16 13 11 10 10 12 13 12 11 11 11 12 12 12 14 13 14 16 17 19 21 22 23 23 25 31 31 28 28 27 27 27 29 31 31 31 30 32 34 37 38
22 16 18 19 22 22 18 16 15 15 14 15 16 16 16 17 18 18 18 18 20 22 31 35 34 35 39 39 34 30 30 31 30 30 30 32 34 35 35 36 36 36 36
20 25 24 23 22 18 15 13 15 17 18 18 18 20 20 20 21 21 22 23 24 24 27 36 35 34 37 36 33 34 32 31 31 32 33 34 36 39 42 44 42 40 38
25 28 26 23 22 18 16 17 18 19 22 23 23 24 23 24 24 25 24 25 25 25 26 31 41 39 40 37 34 31 31 31 32 30 28 27 31 34 38 42 45 45 42
29 27 24 21 20 18 20 21 21 22 24 26 25 26 26 27 27 27 27 27 27 30 33 36 41 43 36 28 27 30 31 29 30 26 26 33 38 36 37 38 39 41 43
26 23 21 21 21 23 25 23 24 25 26 26 27 28 27 27 26 26 27 28 30 32 35 36 38 35 33 34 38 40 41 36 34 39 37 42 40 42 37 35 37 36 39
28 26 24 26 30 29 27 25 26 29 30 31 31 33 35 35 31 33 33 35 36 36 36 39 43 47 45 47 48 55 52 51 53 39 38 44 46 53 55 50 50 52 50
30 31 32 32 30 30 30 31 30 33 33 33 32 31 29 27 26 32 32 30 32 36 39 45 49 47 46 45 51 63 63 57 52 42 52 69 68 63 51 47 46 46 45
35 31 32 31 33 32 32 33 31 34 36 36 35 36 35 36 38 37 36 33 32 34 38 43 48 51 50 46 44 46 49 56 59 60 57 67 57 54 44 44 42 43 46
29 32 32 33 34 34 33 34 31 37 38 38 36 38 38 39 39 32 36 41 41 43 38 38 39 39 44 47 49 54 59 59 64 61 37 52 43 55 66 67 68 69 72
31 31 33 36 37 37 36 35 31 36 40 40 40 40 38 37 34 33 37 38 44 44 41 42 43 43 43 47 49 52 57 65 70 71 62 59 62 55 63 72 56 46 35
Wind_Direction_500mb
204 204 209 211 208 209 211 207 195 198 195 201 209 212 214 216 217 208 213 210 211 214 202 172 156 145 148 199 204 198 199 212 205 209 219 226 226 219 212 202 179 114 143
200 199 202 206 208 210 217 217 209 198 200 200 202 200 207 209 211 214 212 199 206 212 217 197 192 181 185 203 222 230 229 225 224 225 227 227 231 231 225 225 225 206 183
200 201 205 203 202 205 205 207 212 212 209 204 206 207 204 208 213 220 216 213 199 202 210 212 213 209 214 213 223 236 239 248 254 246 225 237 229 232 232 232 229 227 220
200 203 205 203 203 203 202 206 204 205 209 210 208 208 211 214 214 219 218 219 219 218 211 214 216 221 228 229 234 234 243 254 256 264 258 250 251 249 236 236 236 233 229
200 199 195 195 194 199 205 204 206 202 194 192 206 214 216 211 216 222 224 224 221 223 227 227 227 225 231 234 239 244 243 241 240 241 244 238 235 244 252 241 237 235 238
195 193 190 188 189 190 191 195 188 193 197 167 199 196 208 212 222 230 231 228 227 226 229 233 232 235 239 239 241 245 245 243 240 243 240 232 230 220 226 241 244 237 237
192 192 189 188 185 172 170 175 184 181 183 184 177 183 191 220 223 225 232 232 232 226 231 235 236 242 245 245 246 243 245 241 232 236 236 236 231 222 217 226 236 242 235
190 191 189 184 178 177 173 170 173 157 156 179 172 166 210 200 227 242 246 244 238 243 238 247 250 241 244 245 245 247 243 232 228 228 230 236 237 233 223 227 230 237 244
186 184 185 182 188 185 180 175 181 190 156 166 191 180 164 134 161 254 265 255 255 256 264 261 260 264 258 253 252 244 249 251 248 246 234 235 235 236 234 234 234 239 237
184 184 187 184 179 183 168 165 159 174 188 168 172 196 197 167 168 183 327 8 291 271 269 271 276 274 276 275 268 268 256 253 255 252 253 255 250 239 235 235 238 245 249
182 184 182 178 179 178 170 169 165 165 184 181 176 174 167 167 182 180 116 58 324 317 298 282 276 273 269 273 282 281 278 272 268 270 267 260 261 280 300 285 254 247 248
179 179 179 177 174 170 169 164 167 168 174 185 180 178 175 166 186 182 177 188 240 274 289 294 271 265 268 268 270 277 280 283 281 276 272 267 270 290 279 267 267 271 268
174 170 168 166 166 166 167 175 178 177 180 199 209 227 215 226 233 228 230 236 247 258 294 314 310 293 273 262 264 263 266 274 282 286 286 280 273 279 285 284 280 276 272
154 152 151 144 134 145 171 181 184 205 238 259 267 264 264 263 263 260 256 269 281 276 309 331 300 314 289 273 279 275 275 275 271 272 274 279 286 290 291 291 285 277 274
171 171 201 235 229 237 243 237 251 262 263 264 270 273 273 269 266 262 259 262 267 255 211 164 224 305 303 291 287 293 292 285 278 272 271 272 274 280 281 283 286 287 282
200 203 217 213 214 232 252 270 277 281 285 287 284 280 275 270 269 268 263 257 252 251 248 230 234 247 256 270 283 287 292 290 284 280 275 273 273 272 273 271 271 277 282
213 213 212 217 229 229 230 240 255 266 269 270 274 273 272 274 276 273 266 260 257 254 262 268 266 271 275 280 283 280 281 285 284 281 281 278 276 273 272 271 268 267 271
219 226 227 224 222 226 230 242 257 266 269 267 267 270 273 273 271 268 264 262 265 265 268 277 282 282 282 287 285 285 286 286 285 284 284 281 279 279 277 274 272 270 269
216 217 217 221 225 225 240 250 254 261 267 269 269 269 270 268 267 265 262 260 262 267 268 272 282 287 290 292 291 284 284 287 292 297 287 286 285 282 281 279 275 272 270
221 217 220 225 237 249 253 251 253 255 260 263 265 265 264 264 263 262 258 255 256 257 262 264 274 287 295 299 302 303 305 296 288 287 281 279 288 289 289 285 282 277 271
226 227 231 241 253 257 258 258 257 257 257 260 261 264 266 267 269 265 272 273 265 260 261 267 272 284 292 298 301 304 296 298 284 290 286 285 284 289 292 286 283 279 276
228 237 245 259 264 265 265 263 260 260 263 261 259 258 260 261 256 257 259 264 272 275 273 274 276 276 284 293 294 283 278 285 282 285 284 286 286 292 291 280 279 283 284
240 251 257 260 260 260 258 257 257 261 265 263 263 265 263 266 266 266 268 258 253 253 266 278 278 280 283 280 281 282 284 284 279 272 282 285 290 291 294 290 283 278 280
252 259 261 261 265 264 261 259 259 259 263 263 263 261 258 257 259 261 269 271 271 269 265 261 264 272 277 282 281 285 288 286 286 284 284 279 286 287 291 289 284 282 281
249 254 262 268 270 268 265 262 257 257 262 264 264 260 257 259 263 264 262 269 275 277 278 276 273 277 279 279 277 282 279 282 284 286 292 274 277 284 288 286 283 285 286
261 263 265 265 266 267 265 265 263 268 268 267 264 260 257 259 269 265 263 266 268 279 284 285 282 279 277 274 276 274 277 279 281 283 283 281 286 284 283 286 290 295 278
Wind_Speed_850mb
19 17 15 14 13 12 12 11 11 12 15 17 19 23 24 26 27 27 29 28 29 30 26 28 27 32 33 27 26 21 16 16 13 15 17 16 15 13 12 9 5 5 9
21 19 18 15 12 10 9 9 10 12 14 16 18 19 21 24 28 28 28 26 28 30 33 32 38 40 34 28 28 24 22 20 16 15 14 18 20 20 18 16 13 9 9
23 22 20 17 15 14 12 12 11 12 12 14 16 16 19 23 24 29 30 32 37 34 29 32 36 41 39 36 32 29 24 23 23 16 11 11 16 22 24 24 21 18 17
26 23 20 18 17 16 14 13 13 13 13 13 14 15 17 19 21 25 26 29 33 37 41 35 34 35 41 37 37 36 33 33 31 31 23 17 17 17 21 27 28 26 24
26 22 19 17 16 15 15 14 13 11 12 11 13 13 14 14 18 20 22 25 28 33 36 44 47 45 41 40 37 40 34 29 26 31 30 27 22 24 22 21 26 29 32
24 21 20 19 19 18 16 16 15 14 11 11 11 12 13 13 14 15 15 17 20 23 26 28 30 34 38 41 47 52 50 43 35 33 28 31 31 27 27 30 32 30 29
22 19 17 15 11 10 10 10 10 13 14 17 11 6 4 7 10 10 13 14 14 16 18 20 19 22 25 25 29 33 36 40 43 46 47 45 33 33 36 34 37 38 40
25 22 18 15 13 11 10 9 9 8 10 15 13 6 1 3 7 11 12 13 12 12 13 14 14 15 19 19 23 23 23 29 33 49 51 52 50 46 38 38 42 42 46
24 19 16 14 13 12 11 11 10 8 10 10 15 10 9 5 4 1 8 16 14 14 12 12 12 12 15 17 18 19 22 24 24 26 37 52 55 53 48 45 43 49 46
25 21 18 15 13 11 10 10 11 11 10 12 12 11 9 10 9 4 3 5 5 10 12 13 14 14 16 18 20 18 19 21 24 25 25 25 28 42 55 52 46 50 66
27 23 18 15 13 10 9 9 9 12 11 9 9 10 8 8 10 9 4 3 6 8 10 13 13 15 15 20 21 20 23 23 24 24 23 21 17 10 8 12 32 54 66
27 23 19 15 12 10 9 8 8 8 7 6 5 7 7 10 8 9 11 10 10 14 20 18 13 15 16 20 21 23 26 27 26 27 28 28 21 15 23 34 36 34 37
27 23 19 16 13 11 10 9 9 8 7 6 6 5 5 8 8 7 8 9 8 15 13 11 12 15 16 19 19 18 22 24 26 28 30 30 35 40 39 37 36 34 36
24 20 15 13 10 7 6 7 5 3 3 5 6 7 8 10 10 10 10 12 10 6 11 7 9 18 15 19 21 19 19 21 22 25 28 32 35 37 38 37 35 36 37
17 17 11 13 16 15 11 9 8 8 9 8 9 10 10 11 12 13 14 14 14 6 5 9 10 7 15 17 20 26 23 23 24 25 27 30 31 31 32 35 38 38 36
18 16 16 13 11 10 10 12 13 12 11 11 11 12 12 12 14 13 14 16 17 19 21 22 23 23 25 31 31 28 28 27 27 27 29 31 31 31 30 32 34 37 38
22 16 18 19 22 22 18 16 15 15 14 15 16 16 16 17 18 18 18 18 20 22 31 35 34 35 39 39 34 30 30 31 30 30 30 32 34 35 35 36 36 36 36
20 25 24 23 22 18 15 13 15 17 18 18 18 20 20 20 21 21 22 23 24 24 27 36 35 34 37 36 33 34 32 31 31 32 33 34 36 39 42 44 42 40 38
25 28 26 23 22 18 16 17 18 19 22 23 23 24 23 24 24 25 24 25 25 25 26 31 41 39 40 37 34 31 31 31 32 30 28 27 31 34 38 42 45 45 42
29 27 24 21 20 18 20 21 21 22 24 26 25 26 26 27 27 27 27 27 27 30 33 36 41 43 36 28 27 30 31 29 30 26 26 33 38 36 37 38 39 41 43
26 23 21 21 21 23 25 23 24 25 26 26 27 28 27 27 26 26 27 28 30 32 35 36 38 35 33 34 38 40 41 36 34 39 37 42 40 42 37 35 37 36 39
28 26 24 26 30 29 27 25 26 29 30 31 31 33 35 35 31 33 33 35 36 36 36 39 43 47 45 47 48 55 52 51 53 39 38 44 46 53 55 50 50 52 50
30 31 32 32 30 30 30 31 30 33 33 33 32 31 29 27 26 32 32 30 32 36 39 45 49 47 46 45 51 63 63 57 52 42 52 69 68 63 51 47 46 46 45
35 31 32 31 33 32 32 33 31 34 36 36 35 36 35 36 38 37 36 33 32 34 38 43 48 51 50 46 44 46 49 56 59 60 57 67 57 54 44 44 42 43 46
29 32 32 33 34 34 33 34 31 37 38 38 36 38 38 39 39 32 36 41 41 43 38 38 39 39 44 47 49 54 59 59 64 61 37 52 43 55 66 67 68 69 72
31 31 33 36 37 37 36 35 31 36 40 40 40 40 38 37 34 33 37 38 44 44 41 42 43 43 43 47 49 52 57 65 70 71 62 59 62 55 63 72 56 46 35
Wind_Direction_850mb
204 204 209 211 208 209 211 207 195 198 195 201 209 212 214 216 217 208 213 210 211 214 202 172 156 145 148 199 204 198 199 212 205 209 219 226 226 219 212 202 179 114 143
200 199 202 206 208 210 217 217 209 198 200 200 202 200 207 209 211 214 212 199 206 212 217 197 192 181 185 203 222 230 229 225 224 225 227 227 231 231 225 225 225 206 183
200 201 205 203 202 205 205 207 212 212 209 204 206 207 204 208 213 220 216 213 199 202 210 212 213 209 214 213 223 236 239 248 254 246 225 237 229 232 232 232 229 227 220
200 203 205 203 203 203 202 206 204 205 209 210 208 208 211 214 214 219 218 219 219 218 211 214 216 221 228 229 234 234 243 254 256 264 258 250 251 249 236 236 236 233 229
200 199 195 195 194 199 205 204 206 202 194 192 206 214 216 211 216 222 224 224 221 223 227 227 227 225 231 234 239 244 243 241 240 241 244 238 235 244 252 241 237 235 238
195 193 190 188 189 190 191 195 188 193 197 167 199 196 208 212 222 230 231 228 227 226 229 233 232 235 239 239 241 245 245 243 240 243 240 232 230 220 226 241 244 237 237
192 192 189 188 185 172 170 175 184 181 183 184 177 183 191 220 223 225 232 232 232 226 231 235 236 242 245 245 246 243 245 241 232 236 236 236 231 222 217 226 236 242 235
190 191 189 184 178 177 173 170 173 157 156 179 172 166 210 200 227 242 246 244 238 243 238 247 250 241 244 245 245 247 243 232 228 228 230 236 237 233 223 227 230 237 244
186 184 185 182 188 185 180 175 181 190 156 166 191 180 164 134 161 254 265 255 255 256 264 261 260 264 258 253 252 244 249 251 248 246 234 235 235 236 234 234 234 239 237
184 184 187 184 179 183 168 165 159 174 188 168 172 196 197 167 168 183 327 8 291 271 269 271 276 274 276 275 268 268 256 253 255 252 253 255 250 239 235 235 238 245 249
182 184 182 178 179 178 170 169 165 165 184 181 176 174 167 167 182 180 116 58 324 317 298 282 276 273 269 273 282 281 278 272 268 270 267 260 261 280 300 285 254 247 248
179 179 179 177 174 170 169 164 167 168 174 185 180 178 175 166 186 182 177 188 240 274 289 294 271 265 268 268 270 277 280 283 281 276 272 267 270 290 279 267 267 271 268
174 170 168 166 166 166 167 175 178 177 180 199 209 227 215 226 233 228 230 236 247 258 294 314 310 293 273 262 264 263 266 274 282 286 286 280 273 279 285 284 280 276 272
154 152 151 144 134 145 171 181 184 205 238 259 267 264 264 263 263 260 256 269 281 276 309 331 300 314 289 273 279 275 275 275 271 272 274 279 286 290 291 291 285 277 274
171 171 201 235 229 237 243 237 251 262 263 264 270 273 273 269 266 262 259 262 267 255 211 164 224 305 303 291 287 293 292 285 278 272 271 272 274 280 281 283 286 287 282
200 203 217 213 214 232 252 270 277 281 285 287 284 280 275 270 269 268 263 257 252 251 248 230 234 247 256 270 283 287 292 290 284 280 275 273 273 272 273 271 271 277 282
213 213 212 217 229 229 230 240 255 266 269 270 274 273 272 274 276 273 266 260 257 254 262 268 266 271 275 280 283 280 281 285 284 281 281 278 276 273 272 271 268 267 271
219 226 227 224 222 226 230 242 257 266 269 267 267 270 273 273 271 268 264 262 265 265 268 277 282 282 282 287 285 285 286 286 285 284 284 281 279 279 277 274 272 270 269
216 217 217 221 225 225 240 250 254 261 267 269 269 269 270 268 267 265 262 260 262 267 268 272 282 287 290 292 291 284 284 287 292 297 287 286 285 282 281 279 275 272 270
221 217 220 225 237 249 253 251 253 255 260 263 265 265 264 264 263 262 258 255 256 257 262 264 274 287 295 299 302 303 305 296 288 287 281 279 288 289 289 285 282 277 271
226 227 231 241 253 257 258 258 257 257 257 260 261 264 266 267 269 265 272 273 265 260 261 267 272 284 292 298 301 304 296 298 284 290 286 285 284 289 292 286 283 279 276
228 237 245 259 264 265 265 263 260 260 263 261 259 258 260 261 256 257 259 264 272 275 273 274 276 276 284 293 294 283 278 285 282 285 284 286 286 292 291 280 279 283 284
240 251 257 260 260 260 258 257 257 261 265 263 263 265 263 266 266 266 268 258 253 253 266 278 278 280 283 280 281 282 284 284 279 272 282 285 290 291 294 290 283 278 280
252 259 261 261 265 264 261 259 259 259 263 263 263 261 258 257 259 261 269 271 271 269 265 261 264 272 277 282 281 285 288 286 286 284 284 279 286 287 291 289 284 282 281
249 254 262 268 270 268 265 262 257 257 262 264 264 260 257 259 263 264 262 269 275 277 278 276 273 277 279 279 277 282 279 282 284 286 292 274 277 284 288 286 283 285 286
261 263 265 265 266 267 265 265 263 268 268 267 264 260 257 259 269 265 263 266 268 279 284 285 282 279 277 274 276 274 277 279 281 283 283 281 286 284 283 286 290 295 278